Flag for Canada Weather past 2 weeks in Rothesay, New Brunswick, Canada

Now
5 °F

Sunny.


Feels Like: -12 °F
Forecast: 2 / 23 °F
Wind: 13 mph from North

Location: Saint John

Current Time: Jan 29, 2015 at 9:00:32 AM

Latest Report: Jan 29, 2015 at 8:00 AM


Visibility: 15 mi

Pressure: 30.21 "Hg

Humidity: 78%

Dew point: 0 °F

Location of RothesayLocation

Historic Weather in Rothesay — Graph

°F

Rothesay temperature yesterday

Maximum temperature yesterday: 23 °F (at 12:00 AM)
Minimum temperature yesterday: 14 °F (at 11:00 PM)
Average temperature yesterday: 18 °F

Past Weeks' High & Low Weather Summary

 TemperatureHumidityPressure
High45 °F (Jan 19, 7:00 AM)100% (Jan 16, 3:00 AM)30.58 "Hg (Jan 16, 3:00 AM)
Low-15 °F (Jan 14, 8:00 AM)39% (Jan 17, 4:00 PM)28.76 "Hg (Jan 25, 12:47 AM)
Average19 °F75%29.88 "Hg
* Reported Jan 14 8:00 AM — Jan 29 8:00 AM, Rothesay, Weather by CustomWeather, © 2014

Note: Actual official high and low records may vary slightly from our data, if they occured in-between our weather recording intervals... More about our weather records

Advertising

Rothesay weather history for previous 24 hours

 ConditionsComfort  
Time TempWeatherWind HumidityBarometerVisibility
8:00 AM
Jan 29
5 °FSunny.13 mph78%30.21 "Hg15 mi
7:00 AM-2 °FClear.No wind84%30.22 "Hg15 mi
6:00 AM3 °FClear.6 mph85%30.18 "Hg15 mi
5:00 AM3 °FClear.3 mph78%30.20 "Hg15 mi
4:00 AM5 °FClear.6 mph85%30.17 "Hg15 mi
3:00 AM3 °FClear.6 mph85%30.14 "Hg15 mi
2:00 AM7 °FClear.2 mph85%30.11 "Hg15 mi
1:00 AM7 °FClear.5 mph85%30.09 "Hg15 mi
12:00 AM12 °FPassing clouds.5 mph79%30.05 "Hg15 mi
11:00 PM
Jan 28
14 °FLight snow. Partly cloudy.9 mph79%30.02 "Hg15 mi
10:00 PM16 °FLight snow. Mostly cloudy.14 mph86%30.00 "Hg3 mi
9:00 PM16 °FLight snow. Mostly cloudy.16 mph86%29.97 "Hg3 mi
8:00 PM16 °FLight snow. Mostly cloudy.13 mph86%29.95 "Hg2 mi
7:00 PM16 °FLight snow. Mostly cloudy.14 mph86%29.92 "Hg2 mi
6:00 PM16 °FLight snow. Mostly cloudy.15 mph79%29.88 "Hg4 mi
5:00 PM16 °FLight snow. More clouds than sun.16 mph86%29.84 "Hg2 mi
4:00 PM16 °FLight snow. More clouds than sun.21 mph79%29.80 "Hg4 mi
3:50 PM16 °FLight snow. Overcast.22 mph79%29.79 "Hg3 mi
3:00 PM16 °FLight snow. Overcast.25 mph79%29.76 "Hg1 mi
2:00 PM16 °FLight snow. Overcast.26 mph79%29.72 "Hg1 mi
1:00 PM16 °FLight snow. Partly sunny.24 mph86%29.70 "Hg1 mi
12:00 PM16 °FLight snow. More clouds than sun.24 mph86%29.68 "Hg2 mi
11:00 AM18 °FLight snow. Ice fog.24 mph79%29.67 "Hg1 mi
10:00 AM18 °FLight snow. Mostly cloudy.23 mph86%29.64 "Hg2 mi
9:00 AM18 °FLight snow. More clouds than sun.24 mph86%29.62 "Hg1 mi
Weather by CustomWeather, © 2014

See weather overviewHow to use our weather pages